Location: Eboldshausen
(51.7766°N, 10.0050°E)
Time: 07:37:13
(UTC+00:00)

COSMOS 2455 - Pass Details

Date: 15 June 2024
Orbit: 898 x 911 km, 67.1° (Epoch: 23 July)

Event Time Altitude Azimuth Distance (km) Brightness Sun altitude
Rises 00:58:45 0° 255° (WSW) 3,529 5.6 -11.9°
Reaches altitude 10° 01:01:32 10° 266° (W) 2,593 5.0 -11.7°
Maximum altitude 01:06:53 32° 328° (NNW) 1,518 4.4 -11.4°
Drops below altitude 10° 01:12:15 10° 31° (NNE) 2,608 6.8 -11.0°
Sets 01:15:05 0° 41° (NE) 3,553 7.7 -10.8°
